Minot AFB, ND

2:17 PM CDT on October 14, 2019 (GMT -0500)
Minot Air Force Base

Weather History for KMIB - August, 2019

Change the Weather History Date:

Wednesday, August 28, 2019

  Actual Average Record
Temperature  
Mean Temperature 62 °F -  
Max Temperature 80 °F 77 °F 95 °F (2001)
Min Temperature 46 °F 52 °F 45 °F (2007)
Degree Days  
Heating Degree Days 2    
Growing Degree Days 12 (Base 50)    
Moisture  
Dew Point 48 °F    
Average Humidity 64    
Maximum Humidity 92    
Minimum Humidity 29    
Precipitation  
Precipitation 0.00 in - - ()
Sea Level Pressure  
Sea Level Pressure 29.84 in    
Wind  
Wind Speed 4 mph ()    
Max Wind Speed 17 mph    
Max Gust Speed 25 mph    
Visibility 10.0 miles    
Events Rain    
Averages and records for this station are not official NWS values.
T = Trace of Precipitation, MM = Missing Value Source: Averaged Metar Reports

Daily Weather History Graph

Daily Weather History Graph

Search for Another Location

Airport or City:

Astronomy

Aug. 28, 2019 Rise Set
Actual Time 6:57 AM CDT 8:35 PM CDT
Civil Twilight 6:24 AM CDT 9:08 PM CDT
Nautical Twilight 5:43 AM CDT 9:48 PM CDT
Astronomical Twilight 4:59 AM CDT 10:31 PM CDT
Moon 4:16 AM CDT (8/28) 8:00 PM CDT (8/28)
Length of Visible Light 14h 44m
Length of Day
13h 38m
Waning Crescent, 4% of the Moon is Illuminated
Aug 28
Waning Crescent
Aug 30
New
Sep 5
First Quarter
Sep 13
Full
Sep 21
Last Quarter

Hourly Weather History & Observations

Time (CDT) Temp. Dew Point Humidity Pressure Visibility Wind Dir Wind Speed Gust Speed Precip Events Conditions
1:56 AM 50.2 °F 46.8 °F 88% 29.95 in 10.0 mi West 6.9 mph - N/A   Clear
2:56 AM 48.9 °F 45.9 °F 89% 29.95 in 10.0 mi West 6.9 mph - N/A   Clear
3:56 AM 48.9 °F 45.9 °F 89% 29.94 in 10.0 mi WNW 6.9 mph - N/A   Clear
4:56 AM 49.3 °F 46.2 °F 89% 29.94 in 10.0 mi West 8.1 mph - N/A   Clear
5:56 AM 48.4 °F 45.9 °F 91% 29.94 in 10.0 mi West 5.8 mph - N/A   Clear
6:56 AM 46.8 °F 44.6 °F 92% 29.96 in 10.0 mi Calm Calm - N/A   Clear
7:56 AM 50.2 °F 47.3 °F 90% 29.96 in 10.0 mi West 4.6 mph - N/A   Clear
8:56 AM 56.3 °F 48.7 °F 76% 29.94 in 10.0 mi West 5.8 mph - N/A   Clear
9:56 AM 61.2 °F 50.5 °F 68% 29.94 in 10.0 mi West 5.8 mph - N/A   Clear
10:56 AM 65.7 °F 50.0 °F 57% 29.93 in 10.0 mi West 6.9 mph - N/A   Clear
11:56 AM 68.5 °F 48.0 °F 48% 29.92 in 10.0 mi West 9.2 mph - N/A   Clear
12:56 PM 72.7 °F 46.9 °F 40% 29.88 in 10.0 mi WNW 4.6 mph - N/A   Clear
1:59 PM 75.9 °F 43.2 °F 31% 29.86 in 10.0 mi West 9.2 mph 17.3 mph N/A   Clear
2:56 PM 75.4 °F 42.6 °F 31% 29.83 in 9.0 mi Calm Calm - N/A   Clear
3:56 PM 77.0 °F 42.3 °F 29% 29.81 in 10.0 mi Calm Calm - N/A   Clear
4:56 PM 77.9 °F 43.0 °F 29% 29.78 in 10.0 mi Calm Calm - N/A   Clear
5:56 PM 78.6 °F 43.7 °F 29% 29.75 in 10.0 mi Calm Calm - N/A   Partly Cloudy
6:56 PM 79.0 °F 45.0 °F 30% 29.72 in 10.0 mi Calm Calm - N/A   Scattered Clouds
7:56 PM 73.4 °F 49.5 °F 43% 29.68 in 10.0 mi Calm Calm - N/A   Scattered Clouds
8:56 PM 71.2 °F 51.1 °F 49% 29.68 in 10.0 mi Calm Calm - N/A   Overcast
9:27 PM 64.4 °F 51.8 °F 64% 29.75 in 10.0 mi North 17.3 mph 19.6 mph N/A   Light Drizzle
9:37 PM 62.6 °F 51.8 °F 68% 29.75 in 10.0 mi North 16.1 mph 25.3 mph N/A   Mostly Cloudy
9:50 PM 62.6 °F 50.0 °F 63% 29.75 in 10.0 mi North 9.2 mph 20.7 mph N/A Rain Light Rain
9:56 PM 61.9 °F 51.6 °F 69% 29.77 in 10.0 mi North 3.5 mph - 0.00 in Rain Light Rain
10:28 PM 59.0 °F 53.6 °F 82% 29.78 in 10.0 mi Calm Calm - N/A   Mostly Cloudy
10:35 PM 59.0 °F 53.6 °F 82% 29.78 in 10.0 mi Calm Calm - N/A Rain Light Rain
10:49 PM 59.0 °F 53.6 °F 82% 29.78 in 10.0 mi Calm Calm - N/A   Overcast
10:56 PM 59.2 °F 52.7 °F 79% 29.78 in 10.0 mi Calm Calm - 0.00 in   Overcast
11:56 PM 53.8 °F 50.9 °F 90% 29.80 in 10.0 mi Calm Calm - N/A   Partly Cloudy